This demonstration page uses our WeatherBlox Daily Observations layout. Learn more.

Left ArrowRight Arrow

36.17497, -115.13722

Hourly Observations for July 10, 2021

Temp ( °F °C ) Dew Point ( °F °C ) Humidity (%) Winds ( mph kmh ) Pressure ( in mb ) Visibility ( mi km ) Precip ( " mm )
12:53 am 00:53 Clear 100 37.8 49 9.4 18 18 WSW 3 6 29.75 1007 10 16 0.00 0.00
1:53 am 01:53 Clear 98 36.7 50 10 20 20 W 3 6 29.74 1007 10 16 0.00 0.00
2:53 am 02:53 Clear 99 37.2 43 6.1 15 15 NNW 9 15 29.74 1007 10 16 0.00 0.00
3:53 am 03:53 Clear 97 36.1 45 7.2 17 17 Calm 29.74 1007 10 16 0.00 0.00
4:53 am 04:53 Clear 99 37.2 43 6.1 15 15 NNW 8 13 29.75 1008 10 16 0.00 0.00
5:53 am 05:53 Sunny 95 35 44 6.7 17 17 W 6 9 29.78 1008 10 16 0.00 0.00
6:53 am 06:53 Sunny 96 35.6 47 8.3 19 19 NW 7 11 29.79 1009 10 16 0.00 0.00
7:53 am 07:53 Sunny 99 37.2 47 8.3 17 17 N 6 9 29.80 1009 10 16 0.00 0.00
8:53 am 08:53 Sunny 101 38.3 47 8.3 16 16 NNW 6 9 29.81 1010 10 16 0.00 0.00
9:53 am 09:53 Sunny 105 40.6 46 7.8 14 14 Calm 29.81 1009 10 16 0.00 0.00
10:53 am 10:53 Sunny 108 42.2 48 8.9 13 13 Calm 29.81 1010 10 16 0.00 0.00
11:53 am 11:53 Sunny 109 42.8 46 7.8 12 12 E 5 7 29.80 1009 10 16 0.00 0.00
12:53 pm 12:53 Sunny 111 43.9 42 5.6 10 10 SE 5 7 29.79 1009 10 16 0.00 0.00
1:53 pm 13:53 Sunny 112 44.4 44 6.7 10 10 Calm 29.77 1008 10 16 0.00 0.00
2:53 pm 14:53 Sunny 114 45.6 42 5.6 9 9 VRB 5 7 29.73 1007 10 16 0.00 0.00
3:53 pm 15:53 Sunny 117 47.2 40 4.4 7 7 NNE 3 6 29.71 1006 10 16 0.00 0.00
4:53 pm 16:53 Sunny 117 47.2 40 4.4 7 7 NW 5 7 29.68 1005 10 16 0.00 0.00
5:53 pm 17:53 Sunny 116 46.7 38 3.3 7 7 VRB 3 6 29.67 1005 10 16 0.00 0.00
6:53 pm 18:53 Sunny 116 46.7 38 3.3 7 7 NW 6 9 29.67 1005 10 16 0.00 0.00
7:53 pm 19:53 Sunny 113 45 39 3.9 8 8 NW 6 9 29.67 1005 10 16 0.00 0.00
8:53 pm 20:53 Clear 111 43.9 42 5.6 10 10 W 6 9 29.68 1005 10 16 0.00 0.00
11:53 pm 23:53 Clear 107 41.7 44 6.7 12 12 undefined N/A 29.70 1006 10 16 0.00 0.00

Powered by AerisWeather